#timestamp,LO_Frequency,Hit 
1498392015.9,286046803.6,N
1498392035.7,286046803.1,N
1498392055.5,286046805.6,N
1498392075.3,286046805.2,N
1498392095.2,286046804.9,N
1498392115.0,286046805.3,N
1498392115.9,286046805.3,N
1498392135.7,286046802.5,N
1498392155.6,286046801.0,N
1498392175.4,286046798.3,N
1498392195.2,286046799.8,N
1498392215.1,286046799.7,N
1498392216.0,286046799.7,N
1498392235.8,286046801.9,N
1498392255.6,286046802.0,N
1498392275.5,286046802.6,N
1498392295.3,286046801.7,N
1498392315.1,286046799.9,N
1498392335.9,286046796.9,N
1498392355.7,286046796.7,N
1498392375.5,286046798.7,N
1498392395.3,286046797.5,N
1498392415.2,286046797.5,N
1498392435.0,286046798.0,N
1498392435.9,286046798.0,N
1498392455.7,286046796.7,N
1498392475.6,286046797.1,N
1498392495.4,286046795.3,N
1498392515.2,286046793.4,N
1498392535.1,286046794.2,N
1498392536.0,286046794.2,N
1498392555.8,286046794.7,N
1498392575.6,286046791.8,N
1498392595.5,286046794.3,N
1498392615.3,286046793.9,N
1498392635.1,286046794.4,N
1498392655.8,286046794.4,N
1498392675.7,286046794.7,N
1498392695.5,286046791.4,N
1498392715.3,286046791.7,N
1498392735.2,286046794.2,N
1498392755.0,286046792.1,N
1498392755.9,286046792.1,N
1498392775.7,286046792.7,N
1498392795.6,286046790.5,N
1498392815.4,286046790.5,N
1498392835.2,286046789.4,N
1498392855.1,286046789.5,N
1498392856.0,286046789.5,N
1498392875.8,286046789.1,N
1498392895.6,286046793.1,N
1498392915.5,286046788.8,N
1498392935.3,286046787.7,N
1498392955.1,286046789.2,N
1498392975.8,286046790.0,N
1498392995.7,286046789.5,N
1498393015.5,286046787.8,N
1498393035.3,286046785.9,N
1498393055.2,286046785.5,N
1498393075.9,286046786.7,N
1498393095.7,286046786.1,N
1498393115.6,286046782.5,N
1498393135.4,286046785.1,N
1498393155.2,286046784.1,N
1498393175.1,286046785.0,N
1498393176.0,286046785.0,N
1498393195.8,286046784.9,N
1498393215.6,286046785.2,N
1498393235.4,286046783.9,N
1498393255.3,286046780.6,N
1498393275.1,286046780.9,N
1498393295.8,286046781.7,N
1498393315.7,286046780.6,N
1498393335.5,286046782.8,N
1498393355.3,286046781.3,N
1498393375.2,286046781.4,N
1498393395.9,286046781.3,N
1498393415.7,286046781.6,N
1498393435.6,286046780.9,N
1498393455.4,286046780.1,N
1498393475.2,286046779.8,N
1498393495.0,286046778.9,N
1498393496.0,286046778.9,N
1498393515.8,286046780.8,N
1498393535.6,286046781.2,N
1498393555.4,286046781.6,N
1498393575.3,286046781.7,N
1498393595.1,286046782.0,N
1498393615.8,286046780.0,N
1498393635.7,286046778.3,N
1498393655.5,286046778.4,N
1498393675.3,286046776.6,N
1498393695.2,286046776.6,N
1498393715.9,286046775.8,N
1498393735.7,286046776.6,N
1498393755.6,286046776.0,N
1498393775.4,286046778.8,N
1498393795.2,286046777.1,N
1498393815.0,286046774.5,N
1498393816.0,286046774.5,N
1498393835.8,286046774.4,N
1498393855.6,286046774.6,N
1498393875.4,286046774.4,N
1498393895.3,286046772.6,N
1498393915.1,286046773.1,N
1498393935.8,286046770.9,N
1498393955.7,286046771.7,N
1498393975.5,286046771.1,N
1498393995.3,286046772.0,N
1498394015.2,286046769.4,N
1498394035.9,286046770.5,N
1498394055.7,286046769.3,N
1498394075.6,286046770.5,N
1498394095.4,286046770.1,N
1498394115.2,286046768.0,N
1498394135.0,286046770.4,N
1498394136.0,286046770.4,N
1498394155.8,286046769.7,N
1498394175.6,286046770.0,N
1498394195.4,286046769.6,N
1498394215.3,286046769.5,N
1498394235.1,286046770.1,N
1498394255.8,286046772.3,N
1498394275.7,286046770.2,N
1498394295.5,286046772.4,N
1498394315.3,286046768.4,N
1498394335.2,286046766.6,N
1498394355.9,286046768.2,N
1498394375.7,286046769.6,N
1498394395.6,286046770.0,N
1498394415.4,286046769.8,N
1498394435.2,286046767.7,N
1498394455.0,286046767.9,N
1498394456.0,286046767.9,N
1498394475.8,286046766.3,N
1498394495.6,286046766.6,N
1498394515.4,286046769.1,N
1498394535.3,286046770.2,N
1498394555.1,286046768.0,N
1498394575.8,286046769.2,N
1498394595.7,286046764.5,N
1498394615.5,286046766.6,N
1498394635.3,286046766.8,N
1498394655.2,286046767.2,N
1498394675.9,286046766.3,N
1498394695.7,286046766.5,N
1498394715.6,286046769.2,N
1498394735.4,286046769.2,N
1498394755.2,286046768.0,N
1498394775.1,286046768.0,N
1498394776.0,286046768.0,N
1498394795.8,286046768.3,N
1498394815.6,286046766.8,N
1498394835.4,286046767.1,N
1498394855.3,286046764.9,N
1498394875.1,286046766.1,N
1498394895.8,286046766.6,N
1498394915.7,286046765.4,N
1498394935.5,286046765.7,N
1498394955.3,286046765.5,N
1498394975.2,286046764.7,Y
1498394995.9,286046914.5,N
1498395015.7,286046913.4,N
1498395035.6,286046914.8,N
1498395055.4,286046913.9,N
1498395075.2,286046911.7,N
1498395095.1,286046912.8,N
1498395096.0,286046912.8,N
1498395115.8,286046912.7,N
1498395135.6,286046914.7,N
1498395155.5,286046914.0,N
1498395175.3,286046912.4,N
1498395195.1,286046910.4,N
1498395215.8,286046910.4,N
1498395235.7,286046911.8,N
1498395255.5,286046914.6,N
1498395275.3,286046912.2,N
1498395295.2,286046912.5,N
1498395315.9,286046911.8,N
1498395335.7,286046912.7,N
1498395355.6,286046911.6,N
1498395375.4,286046908.6,N
1498395395.2,286046910.6,N
1498395415.1,286046912.9,N
1498395416.0,286046912.9,N
1498395435.8,286046912.5,N
1498395455.6,286046910.8,N
1498395475.5,286046910.5,N
1498395495.3,286046910.4,N
1498395515.1,286046913.2,N
1498395535.8,286046910.9,N
1498395555.7,286046910.5,N
1498395575.5,286046911.0,N
1498395595.3,286046910.1,N
